Flag for Germany Weather past 2 weeks in Schwerte, North Rhine-Westphalia, Germany

Now
75 °F

Sunny.


Feels Like: 77 °F
Forecast: 54 / 78 °F
Wind: 8 mph from South

Location: Dortmund / Wickede

Current Time: Aug 4, 2015 at 7:35:50 AM

Latest Report: Aug 4, 2015 at 7:20 AM


Visibility: 10 mi

Pressure: 29.83 "Hg

Humidity: 39%

Dew point: 48 °F

Location of SchwerteLocation

Historic Weather in Schwerte — Graph

°F

Schwerte temperature yesterday

Maximum temperature yesterday: 88 °F (at 3:20 PM)
Minimum temperature yesterday: 61 °F (at 5:20 AM)
Average temperature yesterday: 80 °F

Past Weeks' High & Low Weather Summary

 TemperatureHumidityPressure
High88 °F (Aug 3, 3:20 PM)88% (Jul 20, 6:20 AM)30.15 "Hg (Jul 20, 6:20 AM)
Low45 °F (Jul 31, 5:20 AM)21% (Aug 3, 3:50 PM)29.50 "Hg (Jul 25, 7:50 AM)
Average65 °F61%29.89 "Hg
* Reported Jul 20 6:20 AM — Aug 4 6:20 AM, Schwerte, Weather by CustomWeather, © 2015

Note: Actual official high and low records may vary slightly from our data, if they occured in-between our weather recording intervals... More about our weather records

Advertising

Schwerte weather history for previous 24 hours

 ConditionsComfort  
Time TempWeatherWind HumidityBarometerVisibility
6:20 AM
Tue, Aug 4
70 °FClear.7 mph46%29.83 "Hg10 mi
5:50 AM70 °FClear.9 mph50%29.83 "Hg10 mi
5:20 AM70 °FClear.7 mph50%29.83 "Hg10 mi
10:50 PM
Mon, Aug 3
77 °FClear.7 mph36%29.92 "Hg10 mi
10:20 PM77 °FClear.7 mph39%29.92 "Hg10 mi
9:50 PM79 °FSunny.6 mph34%29.92 "Hg10 mi
9:20 PM81 °FSunny.6 mph32%29.92 "Hg10 mi
8:50 PM82 °FSunny.7 mph30%29.92 "Hg10 mi
8:20 PM84 °FSunny.5 mph29%29.92 "Hg10 mi
7:50 PM84 °FSunny.7 mph29%29.92 "Hg10 mi
7:20 PM86 °FSunny.9 mph25%29.92 "Hg10 mi
6:50 PM88 °FPassing clouds.8 mph24%29.92 "HgN/A
6:20 PM88 °FPassing clouds.8 mph24%29.92 "HgN/A
5:50 PM88 °FPassing clouds.8 mph24%29.95 "HgN/A
5:20 PM88 °FPassing clouds.10 mph25%29.95 "HgN/A
4:50 PM88 °FPassing clouds.9 mph22%29.95 "HgN/A
4:20 PM88 °FPassing clouds.9 mph21%29.95 "HgN/A
3:50 PM88 °FPassing clouds.12 mph21%29.95 "HgN/A
3:20 PM88 °FPassing clouds.13 mph22%29.98 "HgN/A
2:20 PM86 °FPassing clouds.14 mph22%29.98 "HgN/A
1:50 PM86 °FPassing clouds.14 mph24%29.98 "HgN/A
1:20 PM86 °FPassing clouds.14 mph25%29.98 "HgN/A
12:50 PM84 °FPassing clouds.15 mph27%29.98 "HgN/A
12:20 PM86 °FPassing clouds.15 mph27%29.98 "HgN/A
11:50 AM84 °FPassing clouds.13 mph29%29.98 "HgN/A
11:20 AM82 °FPassing clouds.10 mph30%30.01 "HgN/A
10:50 AM81 °FSunny.13 mph34%30.01 "Hg10 mi
10:20 AM79 °FPassing clouds.13 mph34%30.01 "HgN/A
9:50 AM79 °FPassing clouds.13 mph39%29.98 "HgN/A
9:20 AM75 °FSunny.10 mph39%29.98 "Hg10 mi
8:50 AM72 °FSunny.8 mph47%29.98 "Hg10 mi
8:20 AM70 °FSunny.7 mph46%29.98 "Hg10 mi
7:50 AM68 °FSunny.7 mph49%29.98 "Hg10 mi
7:20 AM64 °FSunny.8 mph56%29.98 "Hg10 mi
Weather by CustomWeather, © 2015

See weather overviewHow to use our weather pages